• în Republica Moldova
  • Lista ţărilor
  • Pe 7 zile
  • Temperatura apei
  • Hartă satelitară
  • Meteo pe hartă
  • Widget-uri
  • user-avatar
    Intrare

    Meteo pe oră la Annaba

    Astăzi, 29 Mai, Luni

    Timp Temperatura Precipitaţii Vânt Presiune Umiditate
    00:00 +19°C° 0 mm 5 m/s 760 mmHg 66%
    01:00 +19°C° 0 mm 4 m/s 760 mmHg 66%
    02:00 +18°C° 0 mm 4 m/s 759 mmHg 65%
    03:00 +18°C° 0 mm 4 m/s 759 mmHg 65%
    04:00 +18°C° 0 mm 4 m/s 759 mmHg 65%
    05:00 +19°C° 0 mm 4 m/s 759 mmHg 60%
    06:00 +21°C° 0 mm 4 m/s 759 mmHg 56%
    07:00 +22°C° 0 mm 4 m/s 759 mmHg 51%
    08:00 +26°C° 0 mm 4 m/s 759 mmHg 45%
    09:00 +28°C° 0 mm 4 m/s 759 mmHg 39%
    10:00 +32°C° 0 mm 4 m/s 759 mmHg 33%
    11:00 +33°C° 0 mm 4 m/s 758 mmHg 31%
    12:00 +34°C° 0 mm 5 m/s 758 mmHg 29%
    13:00 +35°C° 0 mm 5 m/s 758 mmHg 27%
    14:00 +35°C° 0 mm 6 m/s 757 mmHg 27%
    15:00 +35°C° 0 mm 6 m/s 757 mmHg 28%
    16:00 +35°C° 0 mm 7 m/s 757 mmHg 28%
    17:00 +33°C° 0 mm 6 m/s 757 mmHg 34%
    18:00 +30°C° 0 mm 5 m/s 757 mmHg 40%
    19:00 +28°C° 0 mm 4 m/s 757 mmHg 46%
    20:00 +26°C° 0 mm 4 m/s 758 mmHg 53%
    21:00 +22°C° 0 mm 4 m/s 758 mmHg 61%
    22:00 +20°C° 0 mm 4 m/s 758 mmHg 68%
    23:00 +20°C° 0 mm 4 m/s 758 mmHg 68%

    Mâine, 30 Mai, Marţi

    Timp Temperatura Precipitaţii Vânt Presiune Umiditate
    00:00 +20°C° 0 mm 3 m/s 758 mmHg 67%
    01:00 +20°C° 0 mm 3 m/s 758 mmHg 67%
    02:00 +19°C° 0 mm 3 m/s 758 mmHg 70%
    03:00 +19°C° 0 mm 3 m/s 758 mmHg 72%
    04:00 +18°C° 0 mm 2 m/s 758 mmHg 75%
    05:00 +20°C° 0 mm 2 m/s 759 mmHg 72%
    06:00 +21°C° 0 mm 2 m/s 759 mmHg 68%
    07:00 +23°C° 0 mm 2 m/s 759 mmHg 64%
    08:00 +25°C° 0 mm 2 m/s 759 mmHg 59%
    09:00 +27°C° 0 mm 2 m/s 760 mmHg 54%
    10:00 +28°C° 0 mm 2 m/s 760 mmHg 48%
    11:00 +29°C° 0 mm 3 m/s 760 mmHg 48%
    12:00 +30°C° 0 mm 3 m/s 760 mmHg 47%
    13:00 +32°C° 0 mm 4 m/s 760 mmHg 47%
    14:00 +30°C° 0,1 mm 4 m/s 760 mmHg 51%
    15:00 +29°C° 0,1 mm 4 m/s 760 mmHg 55%
    16:00 +29°C° 0,1 mm 4 m/s 760 mmHg 59%
    17:00 +27°C° 0,1 mm 3 m/s 760 mmHg 67%
    18:00 +25°C° 0,1 mm 2 m/s 760 mmHg 75%
    19:00 +24°C° 0,1 mm 1 m/s 760 mmHg 83%
    20:00 +23°C° 0 mm 1 m/s 761 mmHg 86%
    21:00 +23°C° 0 mm 1 m/s 761 mmHg 88%
    22:00 +22°C° 0 mm 1 m/s 761 mmHg 91%
    23:00 +22°C° 0 mm 1 m/s 761 mmHg 91%

    Poimâine, 31 Mai, Miercuri

    Timp Temperatura Precipitaţii Vânt Presiune Umiditate
    00:00 +22°C° 0 mm 1 m/s 761 mmHg 90%
    01:00 +21°C° 0 mm 1 m/s 761 mmHg 90%
    02:00 +21°C° 0 mm 1 m/s 761 mmHg 89%
    03:00 +21°C° 0 mm 1 m/s 761 mmHg 88%
    04:00 +20°C° 0 mm 1 m/s 761 mmHg 87%
    05:00 +22°C° 0 mm 1 m/s 761 mmHg 81%
    06:00 +23°C° 0 mm 1 m/s 761 mmHg 74%
    07:00 +25°C° 0 mm 1 m/s 761 mmHg 68%
    08:00 +27°C° 0 mm 1 m/s 761 mmHg 60%
    09:00 +29°C° 0 mm 2 m/s 761 mmHg 52%
    10:00 +31°C° 0 mm 2 m/s 761 mmHg 44%
    11:00 +33°C° 0 mm 3 m/s 761 mmHg 42%
    12:00 +34°C° 0 mm 3 m/s 761 mmHg 40%
    13:00 +34°C° 0 mm 4 m/s 761 mmHg 37%
    14:00 +34°C° 0,3 mm 4 m/s 760 mmHg 39%
    15:00 +34°C° 0,3 mm 4 m/s 760 mmHg 40%
    16:00 +33°C° 0,3 mm 5 m/s 760 mmHg 41%
    17:00 +30°C° 0,7 mm 4 m/s 760 mmHg 50%
    18:00 +28°C° 0,7 mm 3 m/s 760 mmHg 60%
    19:00 +26°C° 0,7 mm 2 m/s 760 mmHg 70%
    20:00 +25°C° 0,6 mm 2 m/s 761 mmHg 73%
    21:00 +24°C° 0,6 mm 2 m/s 761 mmHg 76%
    22:00 +22°C° 0,6 mm 3 m/s 762 mmHg 78%
    23:00 +23°C° 0,4 mm 2 m/s 762 mmHg 78%

    1 Iunie, Joi

    Timp Temperatura Precipitaţii Vânt Presiune Umiditate
    00:00 +21°C° 0,4 mm 2 m/s 761 mmHg 78%
    01:00 +21°C° 0,4 mm 2 m/s 761 mmHg 78%
    02:00 +21°C° 0,1 mm 2 m/s 761 mmHg 77%
    03:00 +22°C° 0,1 mm 1 m/s 761 mmHg 76%
    04:00 +22°C° 0,1 mm 1 m/s 761 mmHg 75%
    05:00 +23°C° 0,2 mm 1 m/s 761 mmHg 71%
    06:00 +25°C° 0,2 mm 1 m/s 761 mmHg 67%
    07:00 +26°C° 0,2 mm 1 m/s 761 mmHg 63%
    08:00 +28°C° 0 mm 1 m/s 761 mmHg 55%
    09:00 +30°C° 0 mm 1 m/s 761 mmHg 48%
    10:00 +33°C° 0 mm 1 m/s 761 mmHg 40%
    11:00 +34°C° 0 mm 2 m/s 761 mmHg 38%
    12:00 +35°C° 0 mm 2 m/s 761 mmHg 35%
    13:00 +36°C° 0 mm 3 m/s 761 mmHg 32%
    14:00 +36°C° 0 mm 3 m/s 760 mmHg 34%
    15:00 +35°C° 0 mm 4 m/s 760 mmHg 35%
    16:00 +35°C° 0 mm 5 m/s 760 mmHg 37%
    17:00 +33°C° 0,6 mm 4 m/s 760 mmHg 46%
    18:00 +29°C° 0,6 mm 2 m/s 760 mmHg 56%
    19:00 +27°C° 0,6 mm 1 m/s 761 mmHg 66%
    20:00 +26°C° 0,7 mm 1 m/s 761 mmHg 71%
    21:00 +24°C° 0,7 mm 1 m/s 762 mmHg 76%
    22:00 +23°C° 0,7 mm 1 m/s 762 mmHg 81%
    23:00 +23°C° 0,1 mm 1 m/s 762 mmHg 79%

    2 Iunie, Vineri

    Timp Temperatura Precipitaţii Vânt Presiune Umiditate
    00:00 +23°C° 0,1 mm 1 m/s 761 mmHg 77%
    01:00 +23°C° 0,1 mm 1 m/s 761 mmHg 76%
    02:00 +23°C° 0,3 mm 1 m/s 761 mmHg 76%
    03:00 +23°C° 0,3 mm 1 m/s 761 mmHg 76%
    04:00 +22°C° 0,3 mm 1 m/s 760 mmHg 76%
    05:00 +24°C° 0 mm 1 m/s 760 mmHg 72%
    06:00 +25°C° 0 mm 1 m/s 761 mmHg 67%
    07:00 +27°C° 0 mm 1 m/s 761 mmHg 63%
    08:00 +29°C° 0 mm 1 m/s 761 mmHg 56%
    09:00 +31°C° 0 mm 2 m/s 761 mmHg 49%
    10:00 +34°C° 0 mm 2 m/s 761 mmHg 42%
    11:00 +34°C° 0 mm 3 m/s 760 mmHg 40%
    12:00 +35°C° 0 mm 3 m/s 760 mmHg 38%
    13:00 +36°C° 0 mm 4 m/s 760 mmHg 35%
    14:00 +36°C° 0 mm 4 m/s 759 mmHg 36%
    15:00 +35°C° 0 mm 5 m/s 759 mmHg 37%
    16:00 +35°C° 0 mm 5 m/s 759 mmHg 39%
    17:00 +34°C° 0 mm 4 m/s 759 mmHg 44%
    18:00 +31°C° 0 mm 3 m/s 759 mmHg 49%
    19:00 +29°C° 0 mm 2 m/s 759 mmHg 54%
    20:00 +27°C° 0 mm 2 m/s 760 mmHg 59%
    21:00 +26°C° 0 mm 1 m/s 760 mmHg 64%
    22:00 +24°C° 0 mm 1 m/s 760 mmHg 69%
    23:00 +24°C° 0 mm 1 m/s 760 mmHg 70%

    3 Iunie, Sâmbătă

    Timp Temperatura Precipitaţii Vânt Presiune Umiditate
    00:00 +23°C° 0 mm 1 m/s 759 mmHg 72%
    01:00 +23°C° 0 mm 1 m/s 759 mmHg 73%
    02:00 +23°C° 0 mm 2 m/s 759 mmHg 73%
    03:00 +23°C° 0 mm 2 m/s 759 mmHg 73%
    04:00 +23°C° 0 mm 2 m/s 758 mmHg 73%
    05:00 +25°C° 0 mm 2 m/s 758 mmHg 67%
    06:00 +26°C° 0 mm 2 m/s 759 mmHg 61%
    07:00 +28°C° 0 mm 2 m/s 759 mmHg 55%
    08:00 +30°C° 0,1 mm 2 m/s 759 mmHg 49%
    09:00 +32°C° 0,1 mm 2 m/s 758 mmHg 43%
    10:00 +36°C° 0,1 mm 2 m/s 758 mmHg 36%
    11:00 +36°C° 0 mm 3 m/s 758 mmHg 34%
    12:00 +37°C° 0 mm 4 m/s 758 mmHg 32%
    13:00 +38°C° 0 mm 4 m/s 757 mmHg 30%
    14:00 +37°C° 0 mm 4 m/s 757 mmHg 31%
    15:00 +36°C° 0 mm 4 m/s 757 mmHg 33%
    16:00 +36°C° 0 mm 5 m/s 757 mmHg 35%
    17:00 +34°C° 0 mm 4 m/s 757 mmHg 39%
    18:00 +33°C° 0 mm 4 m/s 757 mmHg 43%
    19:00 +32°C° 0 mm 4 m/s 758 mmHg 47%
    20:00 +29°C° 0 mm 3 m/s 758 mmHg 55%
    21:00 +27°C° 0 mm 2 m/s 758 mmHg 62%
    22:00 +24°C° 0 mm 1 m/s 759 mmHg 70%
    23:00 +24°C° 0,2 mm 1 m/s 759 mmHg 71%
    Arată mai mult